Hourly Weather Barra da Estiva

Today, 8 May, Saturday

Time Temperature Precipitation Wind Pressure Humidity
00:00 +20°C° 0 mm 1 mps 677 mmHg 80%
01:00 +20°C° 0 mm 1 mps 676 mmHg 83%
02:00 +19°C° 0 mm 1 mps 676 mmHg 85%
03:00 +19°C° 0 mm 1 mps 676 mmHg 86%
04:00 +19°C° 0 mm 1 mps 676 mmHg 88%
05:00 +18°C° 0 mm 1 mps 676 mmHg 89%
06:00 +18°C° 0 mm 1 mps 677 mmHg 90%
07:00 +20°C° 0 mm 1 mps 677 mmHg 80%
08:00 +21°C° 0 mm 2 mps 678 mmHg 69%
09:00 +25°C° 0 mm 2 mps 679 mmHg 58%
10:00 +26°C° 0 mm 3 mps 679 mmHg 52%
11:00 +27°C° 0 mm 4 mps 679 mmHg 46%
12:00 +28°C° 0 mm 4 mps 679 mmHg 40%
13:00 +29°C° 0 mm 4 mps 678 mmHg 39%
14:00 +29°C° 0 mm 5 mps 678 mmHg 37%
15:00 +29°C° 0 mm 5 mps 677 mmHg 36%
16:00 +27°C° 0 mm 4 mps 677 mmHg 42%
17:00 +26°C° 0 mm 4 mps 677 mmHg 48%
18:00 +23°C° 0 mm 4 mps 677 mmHg 55%
19:00 +22°C° 0 mm 3 mps 677 mmHg 61%
20:00 +21°C° 0 mm 3 mps 678 mmHg 67%
21:00 +20°C° 0 mm 2 mps 678 mmHg 73%
22:00 +19°C° 0 mm 2 mps 678 mmHg 77%
23:00 +19°C° 0 mm 2 mps 678 mmHg 81%

Tomorrow, 9 May, Sunday

Time Temperature Precipitation Wind Pressure Humidity
00:00 +19°C° 0 mm 1 mps 678 mmHg 84%
01:00 +19°C° 0.1 mm 1 mps 678 mmHg 86%
02:00 +18°C° 0.1 mm 2 mps 677 mmHg 88%
03:00 +18°C° 0.1 mm 2 mps 677 mmHg 89%
04:00 +17°C° 0 mm 2 mps 677 mmHg 91%
05:00 +17°C° 0 mm 2 mps 677 mmHg 92%
06:00 +17°C° 0 mm 2 mps 678 mmHg 94%
07:00 +18°C° 0 mm 2 mps 678 mmHg 87%
08:00 +19°C° 0 mm 2 mps 679 mmHg 80%
09:00 +20°C° 0 mm 3 mps 679 mmHg 74%
10:00 +20°C° 0 mm 3 mps 679 mmHg 72%
11:00 +21°C° 0 mm 4 mps 679 mmHg 70%
12:00 +22°C° 0 mm 4 mps 678 mmHg 68%
13:00 +22°C° 0.1 mm 4 mps 678 mmHg 69%
14:00 +22°C° 0.1 mm 4 mps 678 mmHg 70%
15:00 +21°C° 0.1 mm 4 mps 677 mmHg 70%
16:00 +20°C° 0.1 mm 3 mps 677 mmHg 74%
17:00 +20°C° 0.1 mm 2 mps 677 mmHg 78%
18:00 +20°C° 0.1 mm 1 mps 677 mmHg 82%
19:00 +19°C° 0.1 mm 2 mps 678 mmHg 83%
20:00 +19°C° 0.1 mm 2 mps 678 mmHg 85%
21:00 +19°C° 0.1 mm 2 mps 678 mmHg 86%
22:00 +18°C° 0.1 mm 2 mps 678 mmHg 86%
23:00 +18°C° 0.1 mm 2 mps 678 mmHg 86%

Day after tomorrow, 10 May, Monday

Time Temperature Precipitation Wind Pressure Humidity
00:00 +18°C° 0.1 mm 3 mps 678 mmHg 86%
01:00 +17°C° 0 mm 2 mps 677 mmHg 87%
02:00 +17°C° 0 mm 2 mps 677 mmHg 88%
03:00 +16°C° 0 mm 2 mps 677 mmHg 90%
04:00 +16°C° 0 mm 2 mps 677 mmHg 90%
05:00 +16°C° 0 mm 1 mps 677 mmHg 91%
06:00 +15°C° 0 mm 1 mps 677 mmHg 92%
07:00 +16°C° 0 mm 2 mps 678 mmHg 88%
08:00 +17°C° 0 mm 2 mps 678 mmHg 84%
09:00 +18°C° 0 mm 2 mps 679 mmHg 80%
10:00 +18°C° 0 mm 2 mps 679 mmHg 78%
11:00 +19°C° 0 mm 2 mps 679 mmHg 76%
12:00 +19°C° 0 mm 3 mps 678 mmHg 74%
13:00 +20°C° 0 mm 2 mps 678 mmHg 72%
14:00 +20°C° 0 mm 2 mps 677 mmHg 71%
15:00 +20°C° 0 mm 2 mps 677 mmHg 70%
16:00 +20°C° 0 mm 2 mps 677 mmHg 72%
17:00 +20°C° 0 mm 1 mps 677 mmHg 73%
18:00 +20°C° 0 mm 1 mps 677 mmHg 75%
19:00 +20°C° 0.1 mm 1 mps 677 mmHg 78%
20:00 +18°C° 0.1 mm 2 mps 677 mmHg 81%
21:00 +18°C° 0.1 mm 2 mps 678 mmHg 84%
22:00 +17°C° 0.1 mm 2 mps 677 mmHg 85%
23:00 +17°C° 0.1 mm 2 mps 677 mmHg 87%

11 May, Tuesday

Time Temperature Precipitation Wind Pressure Humidity
00:00 +16°C° 0.1 mm 1 mps 677 mmHg 88%
01:00 +16°C° 0 mm 2 mps 677 mmHg 90%
02:00 +16°C° 0 mm 2 mps 676 mmHg 91%
03:00 +15°C° 0 mm 2 mps 676 mmHg 92%
04:00 +15°C° 0 mm 1 mps 676 mmHg 93%
05:00 +14°C° 0 mm 1 mps 676 mmHg 94%
06:00 +14°C° 0 mm 1 mps 676 mmHg 94%
07:00 +15°C° 0 mm 1 mps 677 mmHg 86%
08:00 +17°C° 0 mm 2 mps 678 mmHg 78%
09:00 +19°C° 0 mm 2 mps 678 mmHg 69%
10:00 +20°C° 0 mm 2 mps 678 mmHg 63%
11:00 +21°C° 0 mm 2 mps 678 mmHg 58%
12:00 +24°C° 0 mm 2 mps 677 mmHg 52%
13:00 +24°C° 0 mm 2 mps 677 mmHg 49%
14:00 +25°C° 0 mm 2 mps 676 mmHg 47%
15:00 +26°C° 0 mm 2 mps 676 mmHg 45%
16:00 +24°C° 0 mm 1 mps 675 mmHg 50%
17:00 +22°C° 0 mm 1 mps 675 mmHg 56%
18:00 +20°C° 0 mm 1 mps 675 mmHg 62%
19:00 +20°C° 0 mm 1 mps 675 mmHg 64%
20:00 +19°C° 0 mm 1 mps 676 mmHg 66%
21:00 +18°C° 0 mm 1 mps 676 mmHg 68%
22:00 +18°C° 0 mm 1 mps 676 mmHg 72%
23:00 +16°C° 0 mm 1 mps 676 mmHg 75%

12 May, Wednesday

Time Temperature Precipitation Wind Pressure Humidity
00:00 +15°C° 0 mm 1 mps 676 mmHg 79%
01:00 +15°C° 0 mm 1 mps 675 mmHg 82%
02:00 +14°C° 0 mm 1 mps 675 mmHg 85%
03:00 +14°C° 0 mm 1 mps 675 mmHg 87%
04:00 +14°C° 0 mm 1 mps 675 mmHg 89%
05:00 +13°C° 0 mm 1 mps 675 mmHg 91%
06:00 +13°C° 0 mm 1 mps 675 mmHg 92%
07:00 +16°C° 0 mm 1 mps 676 mmHg 82%
08:00 +19°C° 0 mm 1 mps 677 mmHg 71%
09:00 +22°C° 0 mm 1 mps 678 mmHg 61%
10:00 +24°C° 0 mm 1 mps 678 mmHg 54%
11:00 +26°C° 0 mm 1 mps 677 mmHg 48%
12:00 +28°C° 0 mm 1 mps 677 mmHg 42%
13:00 +28°C° 0 mm 1 mps 677 mmHg 39%
14:00 +29°C° 0 mm 2 mps 676 mmHg 37%
15:00 +29°C° 0 mm 2 mps 675 mmHg 34%
16:00 +27°C° 0 mm 1 mps 675 mmHg 41%
17:00 +24°C° 0 mm 1 mps 675 mmHg 47%
18:00 +22°C° 0 mm 1 mps 675 mmHg 54%
19:00 +21°C° 0 mm 1 mps 675 mmHg 55%
20:00 +21°C° 0 mm 1 mps 675 mmHg 56%
21:00 +21°C° 0 mm 1 mps 676 mmHg 56%
22:00 +19°C° 0 mm 2 mps 676 mmHg 59%
23:00 +18°C° 0 mm 2 mps 676 mmHg 62%

13 May, Thursday

Time Temperature Precipitation Wind Pressure Humidity
00:00 +17°C° 0 mm 2 mps 676 mmHg 65%
01:00 +17°C° 0 mm 2 mps 675 mmHg 73%
02:00 +16°C° 0 mm 2 mps 675 mmHg 80%
03:00 +16°C° 0 mm 2 mps 674 mmHg 87%
04:00 +15°C° 0 mm 2 mps 675 mmHg 88%
05:00 +15°C° 0 mm 1 mps 675 mmHg 89%
06:00 +15°C° 0 mm 1 mps 675 mmHg 90%
07:00 +19°C° 0 mm 1 mps 676 mmHg 78%
08:00 +22°C° 0 mm 1 mps 677 mmHg 67%
09:00 +25°C° 0 mm 1 mps 677 mmHg 55%
10:00 +26°C° 0 mm 1 mps 677 mmHg 48%
11:00 +28°C° 0 mm 2 mps 677 mmHg 41%
12:00 +30°C° 0 mm 2 mps 677 mmHg 34%
13:00 +30°C° 0 mm 2 mps 676 mmHg 33%
14:00 +30°C° 0 mm 2 mps 676 mmHg 32%
15:00 +30°C° 0 mm 2 mps 675 mmHg 30%
16:00 +28°C° 0 mm 1 mps 675 mmHg 35%
17:00 +26°C° 0 mm 1 mps 675 mmHg 41%
18:00 +24°C° 0 mm 1 mps 675 mmHg 46%
19:00 +23°C° 0 mm 1 mps 675 mmHg 47%
20:00 +23°C° 0 mm 1 mps 675 mmHg 49%
21:00 +22°C° 0 mm 1 mps 675 mmHg 51%
22:00 +20°C° 0 mm 2 mps 675 mmHg 53%
23:00 +20°C° 0 mm 2 mps 675 mmHg 55%
Show more